Time,TemperatureF,DewpointF,PressureIn,WindDirection,WindDirectionDegrees,WindSpeedMPH,WindSpeedGustMPH,Humidity,HourlyPrecipIn,Conditions,Clouds,dailyrainin,SolarRadiationWatts/m^2,SoftwareType,DateUTC
2013-06-04 00:22:00,46.0,46.0,-100.00,SSE,152,0.0,0.0,99,0.03,,,0.14,0.000000,,2013-06-04 08:22:00,
2013-06-04 00:32:00,46.0,46.0,-100.00,SSE,152,0.0,0.0,99,0.03,,,0.14,0.000000,,2013-06-04 08:32:00,
2013-06-04 00:42:00,46.0,46.0,-100.00,SSE,152,0.0,0.0,99,0.03,,,0.14,0.000000,,2013-06-04 08:42:00,
2013-06-04 00:52:00,46.0,46.0,-100.00,SSE,152,0.0,0.0,99,0.03,,,0.14,0.000000,,2013-06-04 08:52:00,
2013-06-04 01:12:00,46.0,46.0,-100.00,South,180,0.0,0.0,100,0.09,,,0.23,0.000000,,2013-06-04 09:12:00,
2013-06-04 01:22:00,46.0,46.0,-100.00,South,180,0.0,0.0,100,0.09,,,0.23,0.000000,,2013-06-04 09:22:00,
2013-06-04 01:32:00,46.0,46.0,-100.00,South,180,0.0,0.0,100,0.09,,,0.23,0.000000,,2013-06-04 09:32:00,
2013-06-04 01:42:00,46.0,46.0,-100.00,South,180,0.0,0.0,100,0.09,,,0.23,0.000000,,2013-06-04 09:42:00,
2013-06-04 01:53:00,46.0,46.0,-100.00,South,180,0.0,0.0,100,0.09,,,0.23,0.000000,,2013-06-04 09:53:00,
2013-06-04 02:22:00,47.0,47.0,-100.00,SE,141,0.0,0.0,100,0.06,,,0.29,0.000000,,2013-06-04 10:22:00,
2013-06-04 02:32:00,47.0,47.0,-100.00,SE,141,0.0,0.0,100,0.06,,,0.29,0.000000,,2013-06-04 10:32:00,
2013-06-04 02:42:00,47.0,47.0,-100.00,SE,141,0.0,0.0,100,0.06,,,0.29,0.000000,,2013-06-04 10:42:00,
2013-06-04 02:52:00,47.0,47.0,-100.00,SE,141,0.0,0.0,100,0.06,,,0.29,0.000000,,2013-06-04 10:52:00,
2013-06-04 03:22:00,47.0,47.0,-100.00,SE,146,0.0,0.0,100,0.04,,,0.33,0.000000,,2013-06-04 11:22:00,
2013-06-04 03:32:00,47.0,47.0,-100.00,SE,146,0.0,0.0,100,0.04,,,0.33,0.000000,,2013-06-04 11:32:00,
2013-06-04 03:42:00,47.0,47.0,-100.00,SE,146,0.0,0.0,100,0.04,,,0.33,0.000000,,2013-06-04 11:42:00,
2013-06-04 03:52:00,47.0,47.0,-100.00,SE,146,0.0,0.0,100,0.04,,,0.33,0.000000,,2013-06-04 11:52:00,
2013-06-04 04:22:00,47.0,47.0,-100.00,SE,136,0.0,0.0,100,0.02,,,0.35,0.000000,,2013-06-04 12:22:00,
2013-06-04 04:32:00,47.0,47.0,-100.00,SE,136,0.0,0.0,100,0.02,,,0.35,0.000000,,2013-06-04 12:32:00,
2013-06-04 04:42:00,47.0,47.0,-100.00,SE,136,0.0,0.0,100,0.02,,,0.35,0.000000,,2013-06-04 12:42:00,
2013-06-04 04:52:00,47.0,47.0,-100.00,SE,136,0.0,0.0,100,0.02,,,0.35,0.000000,,2013-06-04 12:52:00,
2013-06-04 05:22:00,47.0,47.0,-100.00,SE,131,0.0,0.0,100,0.06,,,0.41,3.000000,,2013-06-04 13:22:00,
2013-06-04 05:32:00,47.0,47.0,-100.00,SE,131,0.0,0.0,100,0.06,,,0.41,3.000000,,2013-06-04 13:32:00,
2013-06-04 05:42:00,47.0,47.0,-100.00,SE,131,0.0,0.0,100,0.06,,,0.41,3.000000,,2013-06-04 13:42:00,
2013-06-04 05:52:00,47.0,47.0,-100.00,SE,131,0.0,0.0,100,0.06,,,0.41,3.000000,,2013-06-04 13:52:00,
2013-06-04 06:22:00,47.0,47.0,-100.00,SE,137,0.0,0.0,100,0.04,,,0.45,14.000000,,2013-06-04 14:22:00,
2013-06-04 06:32:00,47.0,47.0,-100.00,SE,137,0.0,0.0,100,0.04,,,0.45,14.000000,,2013-06-04 14:32:00,
2013-06-04 06:42:00,47.0,47.0,-100.00,SE,137,0.0,0.0,100,0.04,,,0.45,14.000000,,2013-06-04 14:42:00,
2013-06-04 06:52:00,47.0,47.0,-100.00,SE,137,0.0,0.0,100,0.04,,,0.45,14.000000,,2013-06-04 14:52:00,
2013-06-04 07:22:00,48.0,48.0,-100.00,SE,132,0.0,0.0,100,0.06,,,0.51,30.000000,,2013-06-04 15:22:00,
2013-06-04 07:33:00,48.0,48.0,-100.00,SE,132,0.0,0.0,100,0.06,,,0.51,30.000000,,2013-06-04 15:33:00,
2013-06-04 07:42:00,48.0,48.0,-100.00,SE,132,0.0,0.0,100,0.06,,,0.51,30.000000,,2013-06-04 15:42:00,
2013-06-04 07:53:00,48.0,48.0,-100.00,SE,132,0.0,0.0,100,0.06,,,0.51,30.000000,,2013-06-04 15:53:00,
2013-06-04 08:22:00,48.0,48.0,-100.00,SE,132,0.0,0.0,100,0.02,,,0.53,59.000000,,2013-06-04 16:22:00,
2013-06-04 08:33:00,48.0,48.0,-100.00,SE,132,0.0,0.0,100,0.02,,,0.53,59.000000,,2013-06-04 16:33:00,
2013-06-04 08:42:00,48.0,48.0,-100.00,SE,132,0.0,0.0,100,0.02,,,0.53,59.000000,,2013-06-04 16:42:00,
2013-06-04 08:52:00,48.0,48.0,-100.00,SE,132,0.0,0.0,100,0.02,,,0.53,59.000000,,2013-06-04 16:52:00,
2013-06-04 09:23:00,49.0,49.0,-100.00,SE,127,0.0,0.0,100,0.02,,,0.55,85.000000,,2013-06-04 17:23:00,
2013-06-04 09:32:00,49.0,49.0,-100.00,SE,127,0.0,0.0,100,0.02,,,0.55,85.000000,,2013-06-04 17:32:00,
2013-06-04 09:42:00,49.0,49.0,-100.00,SE,127,0.0,0.0,100,0.02,,,0.55,85.000000,,2013-06-04 17:42:00,
2013-06-04 09:52:00,49.0,49.0,-100.00,SE,127,0.0,0.0,100,0.02,,,0.55,85.000000,,2013-06-04 17:52:00,
2013-06-04 10:22:00,49.0,49.0,-100.00,SE,128,0.0,0.0,100,0.01,,,0.56,124.000000,,2013-06-04 18:22:00,
2013-06-04 10:32:00,49.0,49.0,-100.00,SE,128,0.0,0.0,100,0.01,,,0.56,124.000000,,2013-06-04 18:32:00,
2013-06-04 10:42:00,49.0,49.0,-100.00,SE,128,0.0,0.0,100,0.01,,,0.56,124.000000,,2013-06-04 18:42:00,
2013-06-04 10:52:00,49.0,49.0,-100.00,SE,128,0.0,0.0,100,0.01,,,0.56,124.000000,,2013-06-04 18:52:00,
2013-06-04 11:22:00,50.0,50.0,-100.00,SE,130,0.0,0.0,100,0.03,,,-99.99,173.000000,,2013-06-04 19:22:00,
2013-06-04 11:32:00,50.0,50.0,-100.00,SE,130,0.0,0.0,100,0.03,,,-99.99,173.000000,,2013-06-04 19:32:00,
2013-06-04 11:42:00,50.0,50.0,-100.00,SE,130,0.0,0.0,100,0.03,,,-99.99,173.000000,,2013-06-04 19:42:00,
2013-06-04 11:52:00,50.0,50.0,-100.00,SE,130,0.0,0.0,100,0.03,,,-99.99,173.000000,,2013-06-04 19:52:00,
2013-06-04 12:22:00,50.0,50.0,-100.00,SE,135,0.0,0.0,100,0.08,,,0.67,161.000000,,2013-06-04 20:22:00,
2013-06-04 12:32:00,50.0,50.0,-100.00,SE,135,0.0,0.0,100,0.08,,,0.67,161.000000,,2013-06-04 20:32:00,
2013-06-04 12:42:00,50.0,50.0,-100.00,SE,135,0.0,0.0,100,0.08,,,0.67,161.000000,,2013-06-04 20:42:00,
2013-06-04 12:52:00,50.0,50.0,-100.00,SE,135,0.0,0.0,100,0.08,,,0.67,161.000000,,2013-06-04 20:52:00,
2013-06-04 13:22:00,50.0,50.0,-100.00,SSE,154,0.0,0.0,100,0.04,,,0.71,182.000000,,2013-06-04 21:22:00,
2013-06-04 13:33:00,50.0,50.0,-100.00,SSE,154,0.0,0.0,100,0.04,,,0.71,182.000000,,2013-06-04 21:33:00,
2013-06-04 13:42:00,50.0,50.0,-100.00,SSE,154,0.0,0.0,100,0.04,,,0.71,182.000000,,2013-06-04 21:42:00,
2013-06-04 13:52:00,50.0,50.0,-100.00,SSE,154,0.0,0.0,100,0.04,,,0.71,182.000000,,2013-06-04 21:52:00,
2013-06-04 14:22:00,50.0,50.0,-100.00,South,171,0.0,0.0,99,0.01,,,0.72,181.000000,,2013-06-04 22:22:00,
2013-06-04 14:32:00,50.0,50.0,-100.00,South,171,0.0,0.0,99,0.01,,,0.72,181.000000,,2013-06-04 22:32:00,
2013-06-04 14:42:00,50.0,50.0,-100.00,South,171,0.0,0.0,99,0.01,,,0.72,181.000000,,2013-06-04 22:42:00,
2013-06-04 14:52:00,50.0,50.0,-100.00,South,171,0.0,0.0,99,0.01,,,0.72,181.000000,,2013-06-04 22:52:00,
2013-06-04 15:22:00,51.0,50.0,-100.00,South,179,0.0,0.0,98,0.02,,,0.73,230.000000,,2013-06-04 23:22:00,
2013-06-04 15:32:00,51.0,50.0,-100.00,South,179,0.0,0.0,98,0.02,,,0.73,230.000000,,2013-06-04 23:32:00,
2013-06-04 15:42:00,51.0,50.0,-100.00,South,179,0.0,0.0,98,0.02,,,0.73,230.000000,,2013-06-04 23:42:00,
2013-06-04 15:52:00,51.0,50.0,-100.00,South,179,0.0,0.0,98,0.02,,,0.73,230.000000,,2013-06-04 23:52:00,
2013-06-04 16:22:00,53.0,49.0,-100.00,South,178,0.0,0.0,87,0.00,,,0.73,476.000000,,2013-06-05 00:22:00,
2013-06-04 16:32:00,53.0,49.0,-100.00,South,178,0.0,0.0,87,0.00,,,0.73,476.000000,,2013-06-05 00:32:00,
2013-06-04 16:42:00,53.0,49.0,-100.00,South,178,0.0,0.0,87,0.00,,,0.73,476.000000,,2013-06-05 00:42:00,
2013-06-04 16:52:00,53.0,49.0,-100.00,South,178,0.0,0.0,87,0.00,,,0.73,476.000000,,2013-06-05 00:52:00,
2013-06-04 17:22:00,54.0,44.0,-100.00,SSW,207,0.0,0.0,68,0.00,,,0.73,306.000000,,2013-06-05 01:22:00,
2013-06-04 17:32:00,54.0,44.0,-100.00,SSW,207,0.0,0.0,68,0.00,,,0.73,306.000000,,2013-06-05 01:32:00,
2013-06-04 17:42:00,54.0,44.0,-100.00,SSW,207,0.0,0.0,68,0.00,,,0.73,306.000000,,2013-06-05 01:42:00,
2013-06-04 17:52:00,54.0,44.0,-100.00,SSW,207,0.0,0.0,68,0.00,,,0.73,306.000000,,2013-06-05 01:52:00,
2013-06-04 18:22:00,53.0,43.0,-100.00,SSW,206,0.0,0.0,68,0.00,,,0.71,248.000000,,2013-06-05 02:22:00,
2013-06-04 18:32:00,53.0,43.0,-100.00,SSW,206,0.0,0.0,68,0.00,,,0.71,248.000000,,2013-06-05 02:32:00,
2013-06-04 18:42:00,53.0,43.0,-100.00,SSW,206,0.0,0.0,68,0.00,,,0.71,248.000000,,2013-06-05 02:42:00,
2013-06-04 18:52:00,53.0,43.0,-100.00,SSW,206,0.0,0.0,68,0.00,,,0.71,248.000000,,2013-06-05 02:52:00,
2013-06-04 19:22:00,52.0,41.0,-100.00,SSW,193,0.0,0.0,67,0.00,,,0.70,268.000000,,2013-06-05 03:22:00,
2013-06-04 19:33:00,52.0,41.0,-100.00,SSW,193,0.0,0.0,67,0.00,,,0.70,268.000000,,2013-06-05 03:33:00,
2013-06-04 19:43:00,52.0,41.0,-100.00,SSW,193,0.0,0.0,67,0.00,,,0.70,268.000000,,2013-06-05 03:43:00,
2013-06-04 19:53:00,52.0,41.0,-100.00,SSW,193,0.0,0.0,67,0.00,,,0.70,268.000000,,2013-06-05 03:53:00,
2013-06-04 20:22:00,50.0,41.0,-100.00,SSW,195,0.0,0.0,72,0.00,,,0.70,127.000000,,2013-06-05 04:22:00,
2013-06-04 20:33:00,50.0,41.0,-100.00,SSW,195,0.0,0.0,72,0.00,,,0.70,127.000000,,2013-06-05 04:33:00,
2013-06-04 20:42:00,50.0,41.0,-100.00,SSW,195,0.0,0.0,72,0.00,,,0.70,127.000000,,2013-06-05 04:42:00,
2013-06-04 20:53:00,50.0,41.0,-100.00,SSW,195,0.0,0.0,72,0.00,,,0.70,127.000000,,2013-06-05 04:53:00,
2013-06-04 21:22:00,48.0,40.0,-100.00,South,187,0.0,0.0,75,0.00,,,-99.99,60.000000,,2013-06-05 05:22:00,
2013-06-04 21:32:00,48.0,40.0,-100.00,South,187,0.0,0.0,75,0.00,,,-99.99,60.000000,,2013-06-05 05:32:00,
2013-06-04 21:42:00,48.0,40.0,-100.00,South,187,0.0,0.0,75,0.00,,,-99.99,60.000000,,2013-06-05 05:42:00,
2013-06-04 21:52:00,48.0,40.0,-100.00,South,187,0.0,0.0,75,0.00,,,-99.99,60.000000,,2013-06-05 05:52:00,
2013-06-04 22:22:00,47.0,41.0,-100.00,SSW,192,0.0,0.0,78,0.00,,,0.68,9.000000,,2013-06-05 06:22:00,
2013-06-04 22:32:00,47.0,41.0,-100.00,SSW,192,0.0,0.0,78,0.00,,,0.68,9.000000,,2013-06-05 06:32:00,
2013-06-04 22:42:00,47.0,41.0,-100.00,SSW,192,0.0,0.0,78,0.00,,,0.68,9.000000,,2013-06-05 06:42:00,
2013-06-04 22:52:00,47.0,41.0,-100.00,SSW,192,0.0,0.0,78,0.00,,,0.68,9.000000,,2013-06-05 06:52:00,
2013-06-04 23:22:00,45.0,42.0,-100.00,South,186,0.0,0.0,88,0.00,,,0.63,0.000000,,2013-06-05 07:22:00,
2013-06-04 23:32:00,45.0,42.0,-100.00,South,186,0.0,0.0,88,0.00,,,0.63,0.000000,,2013-06-05 07:32:00,
2013-06-04 23:42:00,45.0,42.0,-100.00,South,186,0.0,0.0,88,0.00,,,0.63,0.000000,,2013-06-05 07:42:00,
2013-06-04 23:52:00,45.0,42.0,-100.00,South,186,0.0,0.0,88,0.00,,,0.63,0.000000,,2013-06-05 07:52:00,